Scottsbluff, NE

2:17 PM MST on March 01, 2017 (GMT -0700)
Heilig

Weather History for KBFF - January, 2007

Change the Weather History Date:

Friday, January 19, 2007

  Actual Average Record
Temperature  
Mean Temperature 23 °F 28 °F  
Max Temperature 40 °F 41 °F 66 °F (1920)
Min Temperature 5 °F 14 °F -32 °F (1963)
Degree Days  
Heating Degree Days 42 37  
Month to date heating degree days 827 726  
Since 1 July heating degree days 3639 3498  
Cooling Degree Days 0 0  
Month to date cooling degree days 0 0  
Year to date cooling degree days 0 0  
Moisture  
Dew Point 7 °F    
Average Humidity 52    
Maximum Humidity 79    
Minimum Humidity 25    
Precipitation  
Precipitation 0.00 in 0.01 in 0.48 in (1990)
Month to date precipitation 0.01 0.25  
Year to date precipitation 0.01 0.25  
Snow  
Snow 0.00 in 0.10 in 6.20 in (1990)
Month to date snowfall 0.2 3.3  
Since 1 July snowfall 19.5 19.3  
Snow Depth 0.00 in    
Sea Level Pressure  
Sea Level Pressure 30.35 in    
Wind  
Wind Speed 5 mph (NW)    
Max Wind Speed 10 mph    
Max Gust Speed 14 mph    
Visibility 10 miles    
Events      
T = Trace of Precipitation, MM = Missing Value Source: NWS Daily Summary

Daily Weather History Graph

Daily Weather History Graph

Search for Another Location

Airport or City:

Trip Planner

Search our weather history database for the weather conditions in past years. The results will help you decide how hot, cold, wet, or windy it might be!

Date:

Astronomy

Jan. 19, 2007 Rise Set
Actual Time 7:17 AM MST 4:52 PM MST
Civil Twilight 6:47 AM MST 5:23 PM MST
Nautical Twilight 6:12 AM MST 5:57 PM MST
Astronomical Twilight 5:39 AM MST 6:30 PM MST
Moon 8:01 AM MST (1/19) 5:36 PM MST (1/19)
Length of Visible Light 10h 36m
Length of Day
9h 35m
New Moon, 0% of the Moon is Illuminated
Jan 19
New Moon
Jan 25
First Quarter
Feb 1
Full
Feb 10
Last Quarter
Feb 17
New

Hourly Weather History & Observations

Time (MST) Temp. Windchill Dew Point Humidity Pressure Visibility Wind Dir Wind Speed Gust Speed Precip Events Conditions
12:53 AM 12.0 °F 1.5 °F 3.0 °F 67% 30.43 in 10.0 mi NNW 6.9 mph - N/A   Clear
1:53 AM 12.0 °F 2.7 °F 3.0 °F 67% 30.42 in 10.0 mi North 5.8 mph - N/A   Clear
2:53 AM 10.0 °F 0.4 °F 3.0 °F 73% 30.41 in 10.0 mi NW 5.8 mph - N/A   Clear
3:53 AM 9.0 °F -2.2 °F 1.9 °F 73% 30.39 in 10.0 mi NW 6.9 mph - N/A   Clear
4:53 AM 6.8 °F -2.0 °F 1.4 °F 79% 30.26 in 10.0 mi NW 4.6 mph - N/A   Clear
5:53 AM 6.1 °F -2.8 °F 1.0 °F 80% 30.46 in 10.0 mi West 4.6 mph - N/A   Clear
6:53 AM 7.0 °F -6.6 °F -0.0 °F 73% 30.45 in 10.0 mi NNW 9.2 mph - N/A   Clear
7:53 AM 10.9 °F 4.7 °F 3.0 °F 70% 30.46 in 10.0 mi NW 3.5 mph - N/A   Clear
8:53 AM 12.9 °F 6.9 °F 5.0 °F 71% 30.47 in 10.0 mi West 3.5 mph - N/A   Clear
9:53 AM 21.9 °F 15.7 °F 7.0 °F 53% 30.44 in 10.0 mi NW 4.6 mph - N/A   Clear
10:53 AM 30.0 °F 25.2 °F 7.0 °F 38% 30.43 in 10.0 mi West 4.6 mph - N/A   Clear
11:53 AM 33.1 °F 26.1 °F 5.0 °F 31% 30.38 in 10.0 mi WNW 8.1 mph - N/A   Clear
12:53 PM 36.0 °F 32.1 °F 6.1 °F 29% 30.33 in 10.0 mi Variable 4.6 mph - N/A   Clear
1:53 PM 37.9 °F - 7.0 °F 28% 30.30 in 10.0 mi Calm Calm - N/A   Clear
2:53 PM 39.9 °F - 7.0 °F 26% 30.27 in 10.0 mi Calm Calm - N/A   Clear
3:53 PM 39.0 °F 36.8 °F 10.0 °F 30% 30.27 in 10.0 mi SSE 3.5 mph - N/A   Clear
4:53 PM 30.9 °F 23.5 °F 12.9 °F 47% 30.29 in 10.0 mi SSE 8.1 mph - N/A   Clear
5:53 PM 25.0 °F 19.3 °F 15.1 °F 66% 30.32 in 10.0 mi SE 4.6 mph - N/A   Clear
6:53 PM 23.0 °F 15.8 °F 14.0 °F 68% 30.32 in 10.0 mi SE 5.8 mph - N/A   Clear
7:53 PM 19.0 °F 8.2 °F 12.9 °F 77% 30.31 in 10.0 mi ESE 9.2 mph - N/A   Clear
8:53 PM 19.9 °F 14.9 °F 10.0 °F 65% 30.29 in 10.0 mi SE 3.5 mph - N/A   Clear
9:53 PM 26.1 °F 18.4 °F 7.0 °F 44% 30.25 in 10.0 mi South 6.9 mph - N/A   Clear
10:53 PM 18.0 °F 11.1 °F 7.0 °F 62% 30.22 in 10.0 mi East 4.6 mph - N/A   Clear
11:53 PM 15.1 °F 6.4 °F 7.0 °F 70% 30.20 in 10.0 mi ENE 5.8 mph - N/A   Clear